User: anonymous   Login
Location: Unspecified
(0.0000°N, 0.0000°E)
Time: 10:16:10
(UTC+00:00)
Language:

OBJECT PD - Orbit

View from above orbital plane
View from above orbital plane
View from above satellite
View from above satellite

Ground track
Ground track

The orbit data is extracted from the following two-line orbital elements,

1 43589U 98067PD  19107.89344342 +.00013484 +00000-0 +16836-3 0  9991
2 43589 051.6359 294.0706 0005258 276.0714 083.9680 15.60180812039092
Epoch (UTC): 17 April 2019 21:26:33
Eccentricity: 0.0005258
inclination: 51.6359°
perigee height: 383 km
apogee height: 390 km
right ascension of ascending node: 294.0706°
argument of perigee: 276.0714°
revolutions per day: 15.60180812
mean anomaly at epoch: 83.9680°
orbit number at epoch: 3909

The dashed part of the orbit path shows where the satellite is in the earth's shadow,  

DLR